(2014 KF46) |
Classification: Apollo [NEO] SPK-ID: 3672674 |
[ hide orbit diagram ]
For accurate long-term ephemerides, please instead use our Horizons system.This orbit viewer was implemented using two-body methods, and hence should not be used for determining accurate long-term trajectories (over several years or decades) or planetary encounter circumstances.
Orbital Elements at Epoch 2459000.5 (2020-May-31.0) TDB
Reference: JPL 4 (heliocentric ecliptic J2000)
Element | Value | Uncertainty (1-sigma) | Units |
e | .360568651937656 | 0.00048814 | |
a | 1.364744758903729 | 0.0010059 | au |
q | .8726605809468304 | 2.3363e-05 | au |
i | 26.9576837418985 | 0.021837 | deg |
node | 67.04483633986831 | 5.5216e-05 | deg |
peri | 242.5047178920992 | 0.02908 | deg |
M | 246.0109287083232 | 1.4455 | deg |
tp | 2459184.889545629862 (2020-Dec-01.38954563) | 2.5422 | TDB |
period | 582.3386020655928 1.59 | 0.64386 0.001763 | d yr |
n | .6181970398717458 | 0.0006835 | deg/d |
Q | 1.856828936860629 | 0.0013687 | au |
|
| | Orbit Determination Parameters
Additional Information
|
[ show covariance matrix ]
Physical Parameter Table
Parameter |
Symbol |
Value |
Units |
Sigma |
Reference |
Notes |
absolute magnitude |
H |
26.5 |
|
n/a |
MPO296109 |
|
|
[ show close-approach data ]
|